• Em Portugal
  • Lista de países
  • Para 7 dias
  • Temperatura da água
  • Mapas de satélite
  • Mapa do tempo
  • Widgets de tempo
  • user-avatar
    Iniciar Sessão

    Previsão horária em Klaipėda

    Hoje, 21 Maio, Segunda-feira

    Tempo Temperatura Precipitação Vento Pressão Humidade
    00:00 +9°C° 0 mm 3 m/s 771 mmHg 81%
    01:00 +9°C° 0 mm 3 m/s 771 mmHg 81%
    02:00 +9°C° 0 mm 3 m/s 771 mmHg 79%
    03:00 +8°C° 0 mm 3 m/s 771 mmHg 77%
    04:00 +8°C° 0 mm 3 m/s 771 mmHg 75%
    05:00 +10°C° 0 mm 3 m/s 771 mmHg 72%
    06:00 +12°C° 0 mm 3 m/s 771 mmHg 69%
    07:00 +14°C° 0 mm 3 m/s 771 mmHg 65%
    08:00 +17°C° 0 mm 3 m/s 771 mmHg 61%
    09:00 +19°C° 0 mm 3 m/s 771 mmHg 57%
    10:00 +21°C° 0 mm 3 m/s 771 mmHg 52%
    11:00 +21°C° 0 mm 3 m/s 770 mmHg 51%
    12:00 +22°C° 0 mm 3 m/s 770 mmHg 50%
    13:00 +22°C° 0 mm 3 m/s 770 mmHg 49%
    14:00 +22°C° 0 mm 3 m/s 769 mmHg 52%
    15:00 +22°C° 0 mm 3 m/s 769 mmHg 54%
    16:00 +22°C° 0 mm 4 m/s 769 mmHg 57%
    17:00 +20°C° 0 mm 4 m/s 768 mmHg 62%
    18:00 +18°C° 0 mm 3 m/s 768 mmHg 68%
    19:00 +17°C° 0 mm 3 m/s 768 mmHg 74%
    20:00 +16°C° 0 mm 3 m/s 768 mmHg 75%
    21:00 +13°C° 0 mm 3 m/s 768 mmHg 77%
    22:00 +12°C° 0 mm 4 m/s 768 mmHg 79%
    23:00 +12°C° 0 mm 4 m/s 768 mmHg 80%

    Amanhã, 22 Maio, Terça-feira

    Tempo Temperatura Precipitação Vento Pressão Humidade
    00:00 +11°C° 0 mm 4 m/s 767 mmHg 82%
    01:00 +11°C° 0 mm 4 m/s 767 mmHg 83%
    02:00 +11°C° 0 mm 4 m/s 767 mmHg 84%
    03:00 +10°C° 0 mm 3 m/s 766 mmHg 85%
    04:00 +10°C° 0 mm 3 m/s 766 mmHg 86%
    05:00 +12°C° 0 mm 3 m/s 766 mmHg 83%
    06:00 +13°C° 0 mm 3 m/s 766 mmHg 79%
    07:00 +14°C° 0 mm 3 m/s 766 mmHg 76%
    08:00 +16°C° 0,1 mm 3 m/s 765 mmHg 77%
    09:00 +16°C° 0,1 mm 3 m/s 765 mmHg 78%
    10:00 +16°C° 0,1 mm 3 m/s 765 mmHg 79%
    11:00 +17°C° 0,2 mm 3 m/s 765 mmHg 77%
    12:00 +18°C° 0,2 mm 2 m/s 764 mmHg 75%
    13:00 +18°C° 0,2 mm 2 m/s 764 mmHg 73%
    14:00 +18°C° 0,4 mm 2 m/s 764 mmHg 74%
    15:00 +18°C° 0,4 mm 2 m/s 764 mmHg 75%
    16:00 +18°C° 0,4 mm 3 m/s 763 mmHg 76%
    17:00 +17°C° 0,3 mm 3 m/s 763 mmHg 80%
    18:00 +16°C° 0,3 mm 3 m/s 763 mmHg 85%
    19:00 +15°C° 0,3 mm 2 m/s 763 mmHg 89%
    20:00 +14°C° 0,2 mm 2 m/s 763 mmHg 91%
    21:00 +14°C° 0,2 mm 2 m/s 763 mmHg 93%
    22:00 +13°C° 0,2 mm 2 m/s 763 mmHg 95%
    23:00 +12°C° 0 mm 1 m/s 763 mmHg 95%

    Depois de amanhã, 23 Maio, Quarta-feira

    Tempo Temperatura Precipitação Vento Pressão Humidade
    00:00 +12°C° 0 mm 1 m/s 763 mmHg 95%
    01:00 +11°C° 0 mm 1 m/s 764 mmHg 95%
    02:00 +11°C° 0 mm 1 m/s 764 mmHg 95%
    03:00 +10°C° 0 mm 2 m/s 764 mmHg 95%
    04:00 +10°C° 0 mm 2 m/s 764 mmHg 95%
    05:00 +13°C° 0 mm 2 m/s 765 mmHg 92%
    06:00 +14°C° 0 mm 2 m/s 765 mmHg 88%
    07:00 +16°C° 0 mm 2 m/s 765 mmHg 85%
    08:00 +17°C° 0 mm 2 m/s 766 mmHg 78%
    09:00 +19°C° 0 mm 2 m/s 766 mmHg 71%
    10:00 +20°C° 0 mm 2 m/s 767 mmHg 65%
    11:00 +20°C° 0 mm 3 m/s 767 mmHg 63%
    12:00 +21°C° 0 mm 3 m/s 767 mmHg 62%
    13:00 +21°C° 0 mm 4 m/s 767 mmHg 61%
    14:00 +21°C° 0 mm 4 m/s 767 mmHg 62%
    15:00 +21°C° 0 mm 4 m/s 767 mmHg 64%
    16:00 +21°C° 0 mm 4 m/s 767 mmHg 65%
    17:00 +19°C° 0 mm 4 m/s 768 mmHg 70%
    18:00 +18°C° 0 mm 4 m/s 768 mmHg 75%
    19:00 +17°C° 0 mm 4 m/s 768 mmHg 81%
    20:00 +15°C° 0 mm 4 m/s 768 mmHg 83%
    21:00 +13°C° 0 mm 4 m/s 769 mmHg 86%
    22:00 +12°C° 0 mm 3 m/s 769 mmHg 88%
    23:00 +11°C° 0 mm 3 m/s 769 mmHg 85%

    24 Maio, Quinta-feira

    Tempo Temperatura Precipitação Vento Pressão Humidade
    00:00 +11°C° 0 mm 3 m/s 770 mmHg 83%
    01:00 +10°C° 0 mm 3 m/s 770 mmHg 80%
    02:00 +10°C° 0 mm 2 m/s 770 mmHg 81%
    03:00 +10°C° 0 mm 2 m/s 770 mmHg 82%
    04:00 +10°C° 0 mm 2 m/s 770 mmHg 84%
    05:00 +13°C° 0 mm 2 m/s 770 mmHg 79%
    06:00 +15°C° 0 mm 2 m/s 771 mmHg 73%
    07:00 +17°C° 0 mm 2 m/s 771 mmHg 68%
    08:00 +19°C° 0 mm 2 m/s 771 mmHg 63%
    09:00 +20°C° 0 mm 2 m/s 771 mmHg 59%
    10:00 +23°C° 0 mm 2 m/s 771 mmHg 54%
    11:00 +22°C° 0 mm 3 m/s 771 mmHg 52%
    12:00 +24°C° 0 mm 3 m/s 771 mmHg 51%
    13:00 +25°C° 0 mm 4 m/s 771 mmHg 50%
    14:00 +25°C° 0 mm 4 m/s 770 mmHg 52%
    15:00 +25°C° 0 mm 4 m/s 770 mmHg 54%
    16:00 +25°C° 0 mm 4 m/s 770 mmHg 56%
    17:00 +22°C° 0 mm 4 m/s 770 mmHg 63%
    18:00 +21°C° 0 mm 4 m/s 770 mmHg 69%
    19:00 +19°C° 0 mm 4 m/s 770 mmHg 76%
    20:00 +18°C° 0 mm 4 m/s 770 mmHg 77%
    21:00 +16°C° 0 mm 5 m/s 770 mmHg 78%
    22:00 +14°C° 0 mm 5 m/s 771 mmHg 79%
    23:00 +14°C° 0 mm 5 m/s 771 mmHg 78%

    25 Maio, Sexta-feira

    Tempo Temperatura Precipitação Vento Pressão Humidade
    00:00 +13°C° 0 mm 5 m/s 771 mmHg 76%
    01:00 +13°C° 0 mm 5 m/s 771 mmHg 74%
    02:00 +12°C° 0 mm 5 m/s 771 mmHg 76%
    03:00 +12°C° 0 mm 5 m/s 772 mmHg 78%
    04:00 +10°C° 0 mm 5 m/s 772 mmHg 81%
    05:00 +12°C° 0 mm 5 m/s 772 mmHg 79%
    06:00 +14°C° 0 mm 4 m/s 772 mmHg 77%
    07:00 +15°C° 0 mm 4 m/s 772 mmHg 75%
    08:00 +18°C° 0 mm 4 m/s 772 mmHg 70%
    09:00 +19°C° 0 mm 4 m/s 772 mmHg 65%
    10:00 +21°C° 0 mm 4 m/s 772 mmHg 60%
    11:00 +21°C° 0 mm 4 m/s 772 mmHg 58%
    12:00 +22°C° 0 mm 4 m/s 772 mmHg 56%
    13:00 +22°C° 0 mm 3 m/s 772 mmHg 54%
    14:00 +22°C° 0 mm 4 m/s 771 mmHg 56%
    15:00 +22°C° 0 mm 4 m/s 771 mmHg 58%
    16:00 +22°C° 0 mm 4 m/s 771 mmHg 60%
    17:00 +21°C° 0 mm 4 m/s 771 mmHg 66%
    18:00 +19°C° 0 mm 4 m/s 771 mmHg 72%
    19:00 +18°C° 0 mm 4 m/s 771 mmHg 78%
    20:00 +17°C° 0 mm 4 m/s 771 mmHg 79%
    21:00 +15°C° 0 mm 4 m/s 772 mmHg 81%
    22:00 +14°C° 0 mm 5 m/s 772 mmHg 83%
    23:00 +13°C° 0 mm 5 m/s 772 mmHg 84%

    26 Maio, Sábado

    Tempo Temperatura Precipitação Vento Pressão Humidade
    00:00 +13°C° 0 mm 5 m/s 772 mmHg 84%
    01:00 +12°C° 0 mm 5 m/s 772 mmHg 84%
    02:00 +12°C° 0 mm 5 m/s 773 mmHg 84%
    03:00 +12°C° 0 mm 5 m/s 773 mmHg 84%
    04:00 +10°C° 0 mm 5 m/s 773 mmHg 85%
    05:00 +13°C° 0 mm 5 m/s 773 mmHg 79%
    06:00 +14°C° 0 mm 5 m/s 773 mmHg 74%
    07:00 +16°C° 0 mm 5 m/s 773 mmHg 69%
    08:00 +17°C° 0 mm 5 m/s 773 mmHg 64%
    09:00 +19°C° 0 mm 5 m/s 773 mmHg 60%
    10:00 +20°C° 0 mm 5 m/s 773 mmHg 55%
    11:00 +21°C° 0 mm 5 m/s 773 mmHg 55%
    12:00 +22°C° 0 mm 5 m/s 773 mmHg 54%
    13:00 +22°C° 0 mm 5 m/s 772 mmHg 54%
    14:00 +22°C° 0 mm 5 m/s 772 mmHg 55%
    15:00 +22°C° 0 mm 4 m/s 772 mmHg 57%
    16:00 +22°C° 0 mm 4 m/s 772 mmHg 59%
    17:00 +21°C° 0 mm 4 m/s 771 mmHg 65%
    18:00 +20°C° 0 mm 4 m/s 771 mmHg 71%
    19:00 +18°C° 0 mm 4 m/s 771 mmHg 77%
    20:00 +17°C° 0 mm 4 m/s 771 mmHg 79%
    21:00 +15°C° 0 mm 4 m/s 771 mmHg 82%
    22:00 +14°C° 0 mm 4 m/s 772 mmHg 84%
    23:00 +13°C° 0 mm 4 m/s 771 mmHg 84%
    Mostrar mais